Ball Ground, GA

9:32 PM EDT on August 24, 2016 (GMT -0400)
Canton

Weather History for KCNI - November, 2013

Change the Weather History Date:

Thursday, November 7, 2013

  Actual Average (KGVL) Record (KGVL)
Temperature  
Mean Temperature 48 °F 55 °F  
Max Temperature 60 °F 65 °F 77 °F (2005)
Min Temperature 37 °F 46 °F 24 °F (1967)
Degree Days  
Heating Degree Days 16 10  
Month to date heating degree days 64  
Since 1 July heating degree days 222  
Moisture  
Dew Point 44 °F    
Average Humidity 69    
Maximum Humidity 94    
Minimum Humidity 44    
Precipitation  
Precipitation 0.00 in 0.13 in 1.18 in (2015)
Month to date precipitation 0.79  
Year to date precipitation 45.80  
Sea Level Pressure  
Sea Level Pressure 30.13 in    
Wind  
Wind Speed 3 mph (NW)    
Max Wind Speed 15 mph    
Max Gust Speed 31 mph    
Visibility 8 miles    
Events Rain    
T = Trace of Precipitation, MM = Missing Value Source: NWS Daily Summary

Daily Weather History Graph

Daily Weather History Graph

Search for Another Location

Airport or City:

Trip Planner

Search our weather history database for the weather conditions in past years. The results will help you decide how hot, cold, wet, or windy it might be!

Date:

Astronomy

Nov. 07, 2013 Rise Set
Actual Time 7:03 AM EST 5:38 PM EST
Civil Twilight 6:37 AM EST 6:05 PM EST
Nautical Twilight 6:07 AM EST 6:35 PM EST
Astronomical Twilight 5:37 AM EST 7:04 PM EST
Moon 11:09 AM EST (11/7) 9:51 PM EST (11/7)
Length of Visible Light 11h 28m
Length of Day
10h 35m
Waxing Crescent, 22% of the Moon is Illuminated
Nov 7
Waxing Crescent
Nov 10
First Quarter
Nov 17
Full
Nov 25
Last Quarter
Dec 2
New

Hourly Weather History & Observations

Time (EST) Temp. Windchill Dew Point Humidity Pressure Visibility Wind Dir Wind Speed Gust Speed Precip Events Conditions
12:15 AM 60.8 °F - 50.0 °F 68% 30.14 in 10.0 mi Calm Calm - N/A   Overcast
12:35 AM 60.8 °F - 50.0 °F 68% 30.14 in 10.0 mi Calm Calm - N/A   Overcast
12:55 AM 60.8 °F - 51.8 °F 72% 30.13 in 10.0 mi Calm Calm - N/A   Overcast
1:15 AM 60.8 °F - 50.0 °F 68% 30.12 in 10.0 mi East 3.5 mph - N/A   Mostly Cloudy
1:35 AM 60.8 °F - 51.8 °F 72% 30.11 in 10.0 mi ESE 3.5 mph - N/A   Overcast
1:55 AM 59.0 °F - 51.8 °F 77% 30.11 in 10.0 mi Calm Calm - N/A   Overcast
2:15 AM 60.8 °F - 51.8 °F 72% 30.09 in 10.0 mi Calm Calm - N/A   Overcast
2:55 AM 59.0 °F - 51.8 °F 77% 30.08 in 10.0 mi Calm Calm - N/A   Mostly Cloudy
3:15 AM 60.8 °F - 51.8 °F 72% 30.08 in 10.0 mi Calm Calm - N/A   Overcast
3:35 AM 60.8 °F - 51.8 °F 72% 30.07 in 10.0 mi Calm Calm - N/A   Overcast
3:55 AM 59.0 °F - 51.8 °F 77% 30.07 in 7.0 mi Calm Calm - N/A Rain Rain
4:15 AM 59.0 °F - 53.6 °F 82% 30.07 in 4.0 mi Calm Calm - N/A   Heavy Drizzle
4:35 AM 59.0 °F - 53.6 °F 82% 30.06 in 3.0 mi Calm Calm - N/A   Heavy Drizzle
4:55 AM 59.0 °F - 53.6 °F 82% 30.07 in 1.5 mi NW 3.5 mph - N/A Rain Rain
5:15 AM 59.0 °F - 55.4 °F 88% 30.07 in 2.5 mi Calm Calm - N/A Rain Rain
5:35 AM 59.0 °F - 55.4 °F 88% 30.07 in 1.5 mi Calm Calm - N/A   Light Drizzle
5:55 AM 59.0 °F - 55.4 °F 88% 30.06 in 0.8 mi Calm Calm - N/A Rain Heavy Rain
6:15 AM 59.0 °F - 55.4 °F 88% 30.08 in 0.5 mi Calm Calm - N/A Rain Rain
6:35 AM 59.0 °F - 55.4 °F 88% 30.07 in 3.0 mi Calm Calm - N/A Rain Light Rain
6:55 AM 59.0 °F - 55.4 °F 88% 30.07 in 3.0 mi Calm Calm - N/A Rain Light Rain
7:15 AM 59.0 °F - 55.4 °F 88% 30.07 in 3.0 mi Calm Calm - N/A Rain Light Rain
7:35 AM 59.0 °F - 55.4 °F 88% 30.08 in 1.0 mi WNW 3.5 mph - N/A Rain Light Rain
7:55 AM 59.0 °F - 55.4 °F 88% 30.09 in 0.8 mi WNW 3.5 mph - N/A Rain Rain
8:15 AM 59.0 °F - 57.2 °F 94% 30.09 in 2.5 mi WNW 3.5 mph - N/A Rain Light Rain
8:35 AM 59.0 °F - 57.2 °F 94% 30.09 in 1.5 mi WNW 3.5 mph - N/A   Light Drizzle
8:55 AM 59.0 °F - 57.2 °F 94% 30.10 in 3.0 mi NW 9.2 mph 16.1 mph N/A   Overcast
9:15 AM 57.2 °F - 53.6 °F 88% 30.12 in 10.0 mi NW 3.5 mph - N/A   Overcast
9:35 AM 59.0 °F - 55.4 °F 88% 30.11 in 10.0 mi NW 5.8 mph - N/A   Overcast
9:55 AM 59.0 °F - 55.4 °F 88% 30.11 in 10.0 mi WNW 8.1 mph - N/A   Mostly Cloudy
10:15 AM 57.2 °F - 53.6 °F 88% 30.12 in 10.0 mi WNW 8.1 mph 17.3 mph N/A   Mostly Cloudy
10:35 AM 55.4 °F - 51.8 °F 88% 30.13 in 10.0 mi WNW 11.5 mph 23.0 mph N/A   Mostly Cloudy
10:55 AM 55.4 °F - 48.2 °F 77% 30.14 in 10.0 mi NW 15.0 mph 31.1 mph N/A   Scattered Clouds
11:15 AM 55.4 °F - 46.4 °F 72% 30.14 in 10.0 mi NW 13.8 mph 27.6 mph N/A   Scattered Clouds
11:35 AM 55.4 °F - 44.6 °F 67% 30.14 in 10.0 mi NW 10.4 mph 26.5 mph N/A   Scattered Clouds
11:55 AM 55.4 °F - 44.6 °F 67% 30.14 in 10.0 mi WNW 12.7 mph 21.9 mph N/A   Clear
12:15 PM 55.4 °F - 42.8 °F 63% 30.14 in 10.0 mi WNW 10.4 mph 21.9 mph N/A   Clear
12:35 PM 55.4 °F - 42.8 °F 63% 30.14 in 10.0 mi WNW 8.1 mph 17.3 mph N/A   Scattered Clouds
12:55 PM 57.2 °F - 42.8 °F 59% 30.14 in 10.0 mi WNW 8.1 mph - N/A   Scattered Clouds
1:15 PM 59.0 °F - 41.0 °F 51% 30.14 in 10.0 mi WNW 11.5 mph 18.4 mph N/A   Clear
1:35 PM 59.0 °F - 41.0 °F 51% 30.13 in 10.0 mi WNW 9.2 mph - N/A   Clear
1:55 PM 59.0 °F - 39.2 °F 48% 30.12 in 10.0 mi WNW 9.2 mph - N/A   Clear
2:15 PM 59.0 °F - 37.4 °F 45% 30.12 in 10.0 mi WNW 10.4 mph - N/A   Clear
2:35 PM 57.2 °F - 37.4 °F 48% 30.12 in 10.0 mi NW 8.1 mph 16.1 mph N/A   Clear
2:55 PM 57.2 °F - 37.4 °F 48% 30.12 in 10.0 mi WNW 10.4 mph 19.6 mph N/A   Clear
3:15 PM 57.2 °F - 37.4 °F 48% 30.13 in 10.0 mi WNW 9.2 mph - N/A   Clear
3:35 PM 55.4 °F - 35.6 °F 47% 30.13 in 10.0 mi WNW 9.2 mph 19.6 mph N/A   Clear
3:55 PM 55.4 °F - 33.8 °F 44% 30.14 in 10.0 mi WNW 8.1 mph - N/A   Clear
4:15 PM 55.4 °F - 35.6 °F 47% 30.14 in 10.0 mi NW 9.2 mph - N/A   Clear
4:35 PM 53.6 °F - 33.8 °F 47% 30.14 in 10.0 mi WNW 10.4 mph 16.1 mph N/A   Clear
4:55 PM 51.8 °F - 33.8 °F 50% 30.15 in 10.0 mi NW 4.6 mph - N/A   Clear
5:15 PM 51.8 °F - 32.0 °F 47% 30.16 in 10.0 mi NW 8.1 mph - N/A   Clear
5:55 PM 48.2 °F - 33.8 °F 58% 30.17 in 10.0 mi NW 4.6 mph - N/A   Clear
6:15 PM 48.2 °F - 33.8 °F 58% 30.18 in 10.0 mi NW 4.6 mph - N/A   Clear
6:35 PM 46.4 °F 45.2 °F 32.0 °F 57% 30.18 in 10.0 mi NW 3.5 mph - N/A   Clear
6:55 PM 46.4 °F 45.2 °F 32.0 °F 57% 30.19 in 10.0 mi WNW 3.5 mph - N/A   Clear
7:15 PM 46.4 °F - 32.0 °F 57% 30.19 in 10.0 mi Calm Calm - N/A   Clear
7:35 PM 46.4 °F - 32.0 °F 57% 30.19 in 10.0 mi Calm Calm - N/A   Clear
7:55 PM 46.4 °F - 30.2 °F 53% 30.19 in 10.0 mi Calm Calm - N/A   Clear
8:15 PM 44.6 °F - 30.2 °F 57% 30.19 in 10.0 mi Calm Calm - N/A   Clear
8:35 PM 44.6 °F 43.1 °F 32.0 °F 61% 30.19 in 10.0 mi NW 3.5 mph - N/A   Clear
8:55 PM 42.8 °F - 32.0 °F 66% 30.20 in 10.0 mi Calm Calm - N/A   Clear
9:15 PM 44.6 °F - 30.2 °F 57% 30.20 in 10.0 mi Calm Calm - N/A   Clear
9:35 PM 42.8 °F - 30.2 °F 61% 30.21 in 10.0 mi Calm Calm - N/A   Clear
9:55 PM 42.8 °F - 30.2 °F 61% 30.21 in 10.0 mi Calm Calm - N/A   Clear
10:15 PM 42.8 °F - 30.2 °F 61% 30.21 in 10.0 mi Calm Calm - N/A   Clear
10:35 PM 41.0 °F - 32.0 °F 70% 30.22 in 10.0 mi Calm Calm - N/A   Clear
10:55 PM 41.0 °F - 30.2 °F 65% 30.22 in 10.0 mi Calm Calm - N/A   Clear
11:15 PM 39.2 °F 37.0 °F 32.0 °F 75% 30.22 in 10.0 mi WNW 3.5 mph - N/A   Clear
11:35 PM 37.4 °F 34.9 °F 32.0 °F 81% 30.22 in 10.0 mi WNW 3.5 mph - N/A   Clear
11:55 PM 37.4 °F 33.8 °F 32.0 °F 81% 30.22 in 10.0 mi WNW 4.6 mph - N/A   Clear